Flag for U.S.A. Weather past 2 weeks in Augusta, Georgia, U.S.A.

Now
51 °F

Passing clouds.


Feels Like: 49 °F
Forecast: 36 / 48 °F
Wind: 7 mph from Northwest

Location: Daniel Field

Current Time: Mar 6, 2015 at 4:36:46 PM

Latest Report: Mar 6, 2015 at 3:53 PM


Visibility: 10 mi

Pressure: 30.37 "Hg

Humidity: 42%

Dew point: 29 °F

Location of AugustaLocation

Historic Weather in Augusta — Graph

°F

Augusta temperature yesterday

Maximum temperature yesterday: 79 °F (at 12:53 PM)
Minimum temperature yesterday: 45 °F (at 11:53 PM)
Average temperature yesterday: 63 °F

Past Weeks' High & Low Weather Summary

 TemperatureHumidityPressure
High79 °F (Mar 5, 12:53 PM)100% (Feb 22, 11:53 PM)30.63 "Hg (Feb 22, 11:53 PM)
Low18 °F (Feb 20, 5:53 AM)20% (Feb 19, 2:53 PM)29.62 "Hg (Feb 26, 12:53 AM)
Average49 °F73%30.20 "Hg
* Reported Feb 19 2:53 PM — Mar 6 2:53 PM, Augusta, Weather by CustomWeather, © 2015

Note: Actual official high and low records may vary slightly from our data, if they occured in-between our weather recording intervals... More about our weather records

Advertising

Augusta weather history for previous 24 hours

 ConditionsComfort  
Time TempWeatherWind HumidityBarometerVisibility
2:53 PM
Fri, Mar 6
50 °FOvercast.6 mph44%30.37 "Hg10 mi
1:53 PM50 °FSunny.5 mph46%30.39 "Hg10 mi
12:53 PM49 °FSunny.7 mph48%30.41 "Hg10 mi
11:53 AM46 °FSunny.8 mph54%30.42 "Hg10 mi
10:53 AM44 °FMore clouds than sun.12 mph53%30.44 "Hg10 mi
9:53 AM42 °FMostly cloudy.10 mph55%30.43 "Hg10 mi
8:53 AM40 °FOvercast.14 mph63%30.42 "Hg10 mi
7:53 AM40 °FOvercast.12 mph65%30.40 "Hg10 mi
6:53 AM40 °FOvercast.6 mph80%30.37 "Hg10 mi
5:53 AM41 °FOvercast.9 mph76%30.35 "Hg10 mi
4:53 AM41 °FMostly cloudy.10 mph80%30.33 "Hg10 mi
3:53 AM42 °FMostly cloudy.14 mph71%30.30 "Hg10 mi
2:53 AM43 °FMostly cloudy.12 mph68%30.30 "Hg10 mi
1:53 AM44 °FOvercast.10 mph73%30.29 "Hg10 mi
12:53 AM44 °FOvercast.16 mph76%30.27 "Hg10 mi
11:53 PM
Thu, Mar 5
45 °FMostly cloudy.16 mph82%30.26 "Hg10 mi
10:53 PM47 °FLight rain. Fog.18 mph90%30.22 "Hg4 mi
10:02 PM50 °FLight rain. Mostly cloudy.9 mph80%30.21 "Hg6 mi
9:53 PM50 °FOvercast.10 mph77%30.20 "Hg10 mi
9:02 PM52 °FPassing clouds.14 mph72%30.18 "Hg10 mi
8:53 PM53 °FPartly cloudy.14 mph69%30.16 "Hg10 mi
7:53 PM56 °FOvercast.14 mph75%30.11 "Hg10 mi
6:53 PM60 °FOvercast.12 mph75%30.05 "Hg10 mi
5:53 PM63 °FOvercast.6 mph78%30.01 "Hg10 mi
4:53 PM63 °FOvercast.3 mph81%29.98 "Hg10 mi
Weather by CustomWeather, © 2015

See weather overviewHow to use our weather pages